Pagina principale
METAR-TAF:

METAR-TAF

Aeroporti :

Capri, Italia

latitudine: 40-33N, longitudine: 014-12E, altezza: 160 m

Osservazione

Il bollettino è stato emesso 1 ora e 18 minuti fa, alle 09:55 UTC
Vento 2 kt da nord/nord-est
Temperature 19°C
Umidità 78%
Pressione 1018 hPa
Visibilità 10 km o più
Cielo coperto ad un'altezza di 3000 ft

METAR: LIQC 260955Z 03002KT 9999 OVC030 19/15 Q1018 RMK OVC QUK 2 QUL 1 NE VIS MAR 20 KM VIS MIN 9999

Ora: 13:13 (11:13 UTC)


TAF: mancante

Osservazioni e previsioni meteorologiche di più di 4000 aeroporti (messaggi METAR e TAF).

Le stazioni disponibili sono rappresentate dai dischi gialli e rossi sulla carta.

Puntare il mouse per vedere il nome della stazione.

Clicca sopra per visualizzare le osservazioni e previsioni meteorologiche.

Per cambiare la mappa : fare clic sui pulsanti verdi con una croce nera per ingrandire, il pulsante verde con un trattino per diminuire, o sulla freccia verde per le mappe adiacenti.


METAR-TAF: